SCP
0 0 0 0 0 0 0 0 0 0 0 0 0 0 0 0 0 0 0 0 0 0 0 0 0 0 0 0 0 0 0 0 0 0 0 0 0 0 0 0 0 0 0
0 0 0 0 0 0 0 0 0 0 0 0 0 0 0 0 0 0 0 0 0 0 0 0 0 0 0 0 0 0 0 0 0 0 0 0 0 0 0 0 0 0 0
0 0 0 0 0 0 0 0 0 0 0 0 0 0 0 0 0 0 0 0 0 0 0 0 0 0 0 0 0 0 0 0 0 0 0 0 0 0 0 0 0 0 0
0 0 0 0 0 0 0 0 0 0 0 0 0 0 0 0 0 0 0 0 0 0 0 0 0 0 0 0 0 0 0 0 0 0 0 0 0 0 0 0 0 0 0
0 0 0 0 0 0 0 0 0 0 0 0 0 0 0 0 0 0 0 0 0 0 0 0 0 0 0 0 0 0 0 0 0 0 0 0 0 0 0 0 0 0 0
0 0 0 0 0 0 0 0 0 0 0 0 0 0 0 0 0 0 0 0 0 0 0 0 0 0 0 0 0 0 0 0 0 0 0 0 0 0 0 0 0 0 0
0 0 0 0 0 0 0 0 0 0 0 0 0 0 0 0 0 0 0 0 0 0 0 0 0 0 0 0 0 0 0 0 0 0 0 0 0 0 0 0 0 0 0
0 0 0 0 0 0 0 0 0 0 0 0 -0 -0 -0 -0 -0 0 0 0 0 0 0 0 0 0 0 0 0 0 0 0 0 0 0 0 0 0 0 0 0 0 0
0 0 0 0 0 0 0 -0 -0 0 0 0 0 0 -0 -0 -0 0 0 0 0 0 0 0 0 0 0 0 0 0 0 0 0 0 0 0 0 0 0 0 0 0 0
0 0 0 0 0 -0 -0 0 0 -0 -0 0 0 0 0 0 0 0 0 0 0 0 0 0 0 0 0 0 0 0 0 0 0 0 0 0 0 0 0 0 0 0 0
0 0 0 0 0 0 0 0 0 0 0 0 0 0 0 0 0 0 0 0 0 0 0 0 0 0 0 0 0 0 0 0 0 0 0 0 0 0 0 0 0 0 0
0 0 0 0 -0 -0 0 0 0 0 0 0 0 0 0 0 0 0 0 0 0 0 0 0 0 -0 0 0 0 0 0 0 0 0 0 0 0 0 0 0 0 0 0
0 0 0 0 0 0 0 0 0 0 0 0 0 0 0 0 0 0 0 0 0 0 0 -0 0 0 -0 0 0 0 0 0 0 0 0 0 0 0 0 0 0 0 0
-0 -0 0 0 0 0 0 0 0 0 0 0 0 0 -0 -0 -0 -0 -0 0 0 -0 0 0 -0 0 0 0 0 0 0 0 0 0 0 0 0 0 0 0 0 0 0
0 0 0 -0 -0 -0 0 0 0 0 0 0 0 0 0 0 -0 -0 -0 -0 -0 0 0 0 0 0 0 -0 0 0 0 0 0 0 0 0 0 0 0 0 0 0 0
0 0 0 0 0 -0 -0 -0 -0 -0 -0 -0 -0 -0 -0 -0 -0 -0 -0 -0 -0 -0 -0 0 0 0 0 0 -0 -0 -0 0 0 0 0 0 0 0 0 0 0 0 0
0 0 0 0 0 -0 -0 -0 -0 -0 0 -0 -0 -0 -0 -0 -0 -0 -0 -0 -0 -0 -0 0 0 0 0 0 0 0 0 0 0 0 0 0 0 0 0 0 0 0 0
0 0 0 0 0 0 -0 -0 -0 0 0 -0 -0 -0 -0 0 0 0 0 0 0 0 0 0 -0 0 0 0 0 0 0 0 0 0 0 0 0 0 0 0 0 0 0
0 0 0 0 0 0 0 0 0 0 -0 -0 0 0 0 0 0 0 0 0 0 0 0 0 0 0 0 0 0 0 0 0 0 0 0 0 0 0 0 0 0 0 0
0 0 0 0 0 0 0 0 0 0 -0 0 0 0 0 0 0 0 0 0 0 0 0 0 0 0 0 0 0 0 0 0 0 0 0 0 0 0 0 0 0 0 0
0 0 0 0 0 0 0 0 0 0 0 0 0 0 0 0 0 0 0 0 0 0 0 0 0 0 0 0 0 0 0 0 0 0 0 0 0 0 0 0 0 0 0
0 0 0 0 0 0 0 0 0 0 0 0 0 0 0 0 0 0 0 0 0 0 0 0 0 0 0 0 0 0 0 0 0 0 0 0 0 0 0 0 0 0 0
0 0 0 0 0 0 0 0 0 0 0 0 0 0 0 0 0 0 0 0 0 0 0 0 0 0 0 0 0 0 0 0 0 0 0 0 0 0 0 0 0 0 0
0 0 0 0 0 0 0 0 0 0 0 0 0 0 0 0 0 0 0 0 0 0 0 0 0 0 0 0 0 0 0 0 0 0 0 0 0 0 0 0 0 0 0
0 0 0 0 0 0 0 0 0 0 0 0 0 0 0 0 0 0 0 0 0 0 0 0 0 0 0 0 0 0 0 0 0 0 0 0 0 0 0 0 0 0 0
0 0 0 0 0 0 0 0 0 0 0 0 0 0 0 0 0 0 0 0 0 -0 0 0 0 0 0 0 0 0 0 0 0 0 0 0 0 0 0 0 0 0 0
Wind_Speed_500mb
30 39 39 34 30 29 27 19 14 20 27 34 43 48 55 55 63 71 74 77 79 83 86 91 90 89 83 80 78 74 70 63 59 49 39 34 32 30 29 28 27 27 26
33 40 46 49 48 43 38 26 16 9 15 20 22 27 29 39 41 52 66 74 78 85 86 92 94 92 86 84 83 81 77 70 68 58 42 26 34 35 34 34 31 29 29
35 42 48 52 52 54 54 47 30 15 5 6 14 22 29 37 43 45 49 59 64 70 80 85 93 96 94 92 90 88 87 84 77 68 38 18 20 29 37 40 36 34 33
32 35 41 55 61 60 54 53 47 35 22 12 7 8 19 20 22 29 39 49 56 63 77 80 88 99 99 98 96 93 92 89 87 77 74 60 29 22 19 38 43 44 42
32 36 38 42 47 54 59 59 58 52 45 33 19 10 13 15 16 28 30 32 38 43 53 75 82 98 104 102 103 100 99 96 92 89 84 79 60 43 24 28 45 53 52
29 33 32 37 43 46 50 51 53 58 61 53 42 30 21 16 17 19 27 26 31 36 39 51 69 86 99 104 104 103 102 100 99 95 92 90 88 80 62 37 35 42 46
23 27 30 32 33 39 44 52 58 60 57 53 50 49 40 29 24 22 20 24 25 32 32 37 47 61 87 98 101 105 104 101 102 101 98 96 92 81 71 60 49 37 44
21 28 28 28 31 40 48 50 56 54 51 48 49 47 47 48 40 33 30 27 27 31 34 36 40 45 54 79 96 102 106 105 102 102 104 103 100 91 85 73 68 40 45
22 24 25 26 32 38 43 48 45 44 46 48 47 45 45 45 46 47 40 35 31 32 32 35 39 40 45 53 72 92 103 105 104 104 106 109 104 97 93 84 80 71 54
21 22 25 27 31 34 35 33 35 39 41 40 41 42 43 42 41 43 45 46 43 32 32 32 35 42 42 45 55 73 89 100 105 106 108 109 108 107 99 93 89 81 73
14 15 16 18 20 24 29 30 31 36 40 41 42 43 44 44 42 41 42 44 45 49 44 35 34 36 44 49 52 59 69 88 101 107 110 112 110 114 110 101 94 88 82
10 12 11 14 15 19 25 27 31 37 42 44 45 45 45 43 45 48 47 48 50 48 46 46 43 38 39 45 53 61 64 69 87 99 107 111 112 118 114 109 105 99 89
3 8 9 12 16 19 22 25 30 32 45 51 54 54 55 55 53 53 55 54 53 52 55 56 49 44 46 45 49 55 62 70 76 82 96 109 112 118 117 116 114 107 99
8 5 9 10 14 17 21 26 31 36 45 51 54 58 60 64 68 66 61 62 65 65 61 58 61 58 48 48 53 53 58 66 75 79 85 97 111 119 118 121 121 116 110
9 9 12 15 18 19 21 25 31 34 39 45 50 57 64 68 74 77 81 80 73 69 73 73 68 65 63 61 58 53 55 63 71 76 86 91 102 112 118 120 124 125 120
14 15 17 20 22 24 25 28 31 32 45 53 58 61 64 68 75 83 87 87 87 89 86 81 81 81 75 70 67 66 63 63 70 79 84 91 98 104 111 123 123 127 129
22 20 22 25 28 30 30 33 36 44 61 69 74 75 75 78 80 82 84 88 95 99 101 100 99 98 93 85 79 73 69 73 76 78 84 90 98 100 107 110 118 130 130
33 30 27 30 33 40 49 43 54 66 76 80 80 82 88 94 98 99 98 97 96 99 106 113 116 114 113 105 94 82 82 80 81 85 86 92 97 98 101 106 108 125 130
33 37 31 35 46 49 50 57 72 78 77 78 86 95 97 105 112 116 122 122 121 120 118 117 121 127 128 118 113 102 91 91 92 88 88 89 96 97 94 102 102 112 126
36 37 44 51 54 54 62 74 85 88 87 87 88 96 104 107 112 110 112 116 116 126 127 128 125 126 133 132 122 115 104 97 97 97 96 91 95 95 91 105 100 112 113
41 48 51 54 55 54 71 83 89 100 104 107 109 108 102 100 109 117 112 105 111 115 127 129 134 131 128 132 130 118 98 108 100 101 100 98 94 90 94 99 108 115 99
36 40 49 59 67 71 79 89 99 106 110 113 117 119 120 118 112 108 116 105 95 99 106 103 115 125 128 124 123 101 96 109 99 101 99 95 89 85 83 96 109 93 87
39 50 61 70 71 73 83 95 101 101 105 110 115 118 119 116 104 94 92 88 81 81 87 87 93 101 95 96 90 80 81 85 84 96 97 89 84 83 79 82 97 91 90
48 56 63 68 76 82 89 90 91 94 100 107 111 112 108 103 93 84 79 78 77 77 79 81 83 85 85 81 75 65 65 73 82 87 81 81 77 80 85 79 85 93 104
52 57 62 72 81 85 87 85 86 89 97 101 105 101 91 83 83 81 78 78 80 80 85 87 90 93 99 90 74 67 58 59 71 61 61 72 75 82 83 79 78 99 100
54 59 66 75 80 82 82 81 80 83 88 93 91 87 89 89 87 83 86 74 73 75 78 83 88 98 102 95 89 85 88 77 60 59 58 69 77 84 90 87 87 98 97
Wind_Direction_500mb
41 28 29 28 19 8 359 343 301 261 251 246 239 239 236 239 241 239 239 240 243 241 235 235 235 234 234 232 230 227 224 219 220 219 221 229 237 241 247 248 241 240 238
39 31 28 29 27 21 17 14 14 338 284 233 239 236 240 244 246 251 244 242 240 243 238 236 236 237 235 233 231 229 225 223 225 218 223 221 235 235 239 236 234 229 226
39 29 31 34 36 35 31 27 28 30 41 280 269 254 228 245 247 246 247 247 244 243 243 238 238 240 237 236 236 233 231 228 225 218 216 199 220 225 234 229 225 220 223
48 44 38 35 37 39 41 39 37 35 44 51 14 315 294 293 281 268 256 259 259 252 253 248 241 241 240 238 239 237 236 233 233 223 221 227 204 189 201 225 225 223 228
47 42 42 44 40 39 37 39 40 40 42 35 42 28 340 311 290 278 285 272 271 268 252 253 245 241 242 240 240 238 236 236 237 235 232 227 225 218 200 206 222 227 231
56 51 41 38 33 34 35 36 37 37 37 31 26 18 1 335 308 294 300 289 284 277 272 260 256 246 245 243 243 243 239 237 237 240 238 238 230 227 221 217 222 228 230
63 59 48 40 31 27 27 25 24 25 26 27 28 24 15 3 345 325 310 292 287 284 282 276 271 259 249 248 245 245 244 240 238 238 240 241 240 240 240 232 221 208 223
59 49 41 33 27 21 17 15 14 13 13 13 16 19 19 19 9 350 331 312 294 284 286 284 279 271 262 253 249 247 247 245 242 240 240 242 242 240 242 239 233 213 219
42 34 26 20 15 17 15 13 10 8 7 8 9 9 9 11 10 11 5 347 326 306 296 288 285 279 271 262 255 250 250 248 246 243 242 243 244 241 240 240 242 240 228
32 22 19 13 6 4 6 6 8 11 11 10 6 6 5 3 1 1 2 3 354 340 324 314 298 287 278 272 264 256 253 252 250 247 245 244 243 242 238 237 241 241 241
21 9 11 11 6 4 8 10 7 6 8 9 6 2 2 1 356 353 350 350 350 350 349 334 314 301 289 279 269 267 264 258 253 250 248 247 246 244 239 237 238 237 237
10 14 13 12 11 14 5 1 356 350 353 356 355 354 352 350 349 350 347 341 337 340 342 339 336 327 310 294 279 276 269 263 260 255 252 249 246 245 243 239 238 238 236
321 356 345 351 357 3 356 348 349 345 343 345 344 343 342 342 341 339 336 335 334 332 331 332 333 327 324 312 295 284 275 273 265 261 259 255 250 250 246 242 239 237 237
239 279 291 308 325 339 338 336 337 335 333 335 334 333 331 332 332 331 329 325 325 327 326 323 324 325 318 311 309 297 286 277 270 266 262 259 256 252 249 246 242 239 237
260 297 301 310 311 309 316 322 324 322 322 321 320 319 318 318 317 318 320 321 321 318 316 316 315 315 316 315 299 300 298 286 277 270 265 262 260 256 253 250 246 242 237
276 303 315 320 318 311 300 305 311 305 315 318 314 309 304 301 303 306 309 309 310 312 311 309 310 310 309 309 312 306 293 289 281 276 269 263 262 259 257 255 251 248 242
269 295 311 319 321 315 305 297 301 305 313 315 313 311 307 303 301 299 298 300 303 304 305 305 305 304 303 304 303 304 301 289 281 277 271 267 262 259 257 255 254 251 248
268 276 291 301 310 313 316 307 305 312 315 315 313 312 311 308 306 303 300 297 294 293 294 296 297 297 296 297 298 299 297 294 285 279 271 266 264 259 257 254 251 249 247
283 279 283 292 305 314 315 306 309 312 312 311 311 311 308 305 304 301 300 297 295 291 288 286 286 289 290 291 292 293 292 288 287 282 277 268 264 260 254 252 248 250 248
292 284 274 293 304 310 308 306 310 311 312 311 307 305 304 302 299 296 294 294 292 292 291 287 282 280 281 283 283 285 285 283 281 282 281 276 266 258 247 246 246 242 245
280 277 284 293 304 304 305 308 310 311 313 310 308 305 302 297 295 295 292 289 287 288 289 288 285 282 277 275 278 277 273 277 277 277 278 276 275 262 245 239 242 245 240
275 283 290 297 301 305 307 308 310 311 309 307 305 304 304 303 301 299 298 294 289 287 286 286 286 284 279 276 275 272 267 271 271 269 272 273 273 260 250 234 239 234 228
284 289 294 297 302 306 312 311 311 311 309 307 306 307 308 308 308 303 299 294 291 285 283 281 281 281 281 278 274 268 262 261 259 264 267 268 266 255 243 239 234 226 217
292 295 300 304 308 312 312 312 313 313 311 311 311 312 311 310 308 302 296 292 289 287 285 283 281 282 282 278 276 272 267 259 260 264 259 252 250 249 246 238 231 224 218
295 301 304 307 309 313 313 315 318 316 315 315 314 312 309 306 302 298 294 292 288 286 285 283 281 280 279 278 274 271 267 266 272 267 260 254 241 236 227 226 232 220 219
300 303 306 309 314 314 316 320 320 320 317 314 316 315 314 312 308 303 301 298 292 291 287 284 280 279 276 277 274 272 271 270 267 266 257 251 234 229 228 224 222 220 219
Wind_Speed_850mb
30 39 39 34 30 29 27 19 14 20 27 34 43 48 55 55 63 71 74 77 79 83 86 91 90 89 83 80 78 74 70 63 59 49 39 34 32 30 29 28 27 27 26
33 40 46 49 48 43 38 26 16 9 15 20 22 27 29 39 41 52 66 74 78 85 86 92 94 92 86 84 83 81 77 70 68 58 42 26 34 35 34 34 31 29 29
35 42 48 52 52 54 54 47 30 15 5 6 14 22 29 37 43 45 49 59 64 70 80 85 93 96 94 92 90 88 87 84 77 68 38 18 20 29 37 40 36 34 33
32 35 41 55 61 60 54 53 47 35 22 12 7 8 19 20 22 29 39 49 56 63 77 80 88 99 99 98 96 93 92 89 87 77 74 60 29 22 19 38 43 44 42
32 36 38 42 47 54 59 59 58 52 45 33 19 10 13 15 16 28 30 32 38 43 53 75 82 98 104 102 103 100 99 96 92 89 84 79 60 43 24 28 45 53 52
29 33 32 37 43 46 50 51 53 58 61 53 42 30 21 16 17 19 27 26 31 36 39 51 69 86 99 104 104 103 102 100 99 95 92 90 88 80 62 37 35 42 46
23 27 30 32 33 39 44 52 58 60 57 53 50 49 40 29 24 22 20 24 25 32 32 37 47 61 87 98 101 105 104 101 102 101 98 96 92 81 71 60 49 37 44
21 28 28 28 31 40 48 50 56 54 51 48 49 47 47 48 40 33 30 27 27 31 34 36 40 45 54 79 96 102 106 105 102 102 104 103 100 91 85 73 68 40 45
22 24 25 26 32 38 43 48 45 44 46 48 47 45 45 45 46 47 40 35 31 32 32 35 39 40 45 53 72 92 103 105 104 104 106 109 104 97 93 84 80 71 54
21 22 25 27 31 34 35 33 35 39 41 40 41 42 43 42 41 43 45 46 43 32 32 32 35 42 42 45 55 73 89 100 105 106 108 109 108 107 99 93 89 81 73
14 15 16 18 20 24 29 30 31 36 40 41 42 43 44 44 42 41 42 44 45 49 44 35 34 36 44 49 52 59 69 88 101 107 110 112 110 114 110 101 94 88 82
10 12 11 14 15 19 25 27 31 37 42 44 45 45 45 43 45 48 47 48 50 48 46 46 43 38 39 45 53 61 64 69 87 99 107 111 112 118 114 109 105 99 89
3 8 9 12 16 19 22 25 30 32 45 51 54 54 55 55 53 53 55 54 53 52 55 56 49 44 46 45 49 55 62 70 76 82 96 109 112 118 117 116 114 107 99
8 5 9 10 14 17 21 26 31 36 45 51 54 58 60 64 68 66 61 62 65 65 61 58 61 58 48 48 53 53 58 66 75 79 85 97 111 119 118 121 121 116 110
9 9 12 15 18 19 21 25 31 34 39 45 50 57 64 68 74 77 81 80 73 69 73 73 68 65 63 61 58 53 55 63 71 76 86 91 102 112 118 120 124 125 120
14 15 17 20 22 24 25 28 31 32 45 53 58 61 64 68 75 83 87 87 87 89 86 81 81 81 75 70 67 66 63 63 70 79 84 91 98 104 111 123 123 127 129
22 20 22 25 28 30 30 33 36 44 61 69 74 75 75 78 80 82 84 88 95 99 101 100 99 98 93 85 79 73 69 73 76 78 84 90 98 100 107 110 118 130 130
33 30 27 30 33 40 49 43 54 66 76 80 80 82 88 94 98 99 98 97 96 99 106 113 116 114 113 105 94 82 82 80 81 85 86 92 97 98 101 106 108 125 130
33 37 31 35 46 49 50 57 72 78 77 78 86 95 97 105 112 116 122 122 121 120 118 117 121 127 128 118 113 102 91 91 92 88 88 89 96 97 94 102 102 112 126
36 37 44 51 54 54 62 74 85 88 87 87 88 96 104 107 112 110 112 116 116 126 127 128 125 126 133 132 122 115 104 97 97 97 96 91 95 95 91 105 100 112 113
41 48 51 54 55 54 71 83 89 100 104 107 109 108 102 100 109 117 112 105 111 115 127 129 134 131 128 132 130 118 98 108 100 101 100 98 94 90 94 99 108 115 99
36 40 49 59 67 71 79 89 99 106 110 113 117 119 120 118 112 108 116 105 95 99 106 103 115 125 128 124 123 101 96 109 99 101 99 95 89 85 83 96 109 93 87
39 50 61 70 71 73 83 95 101 101 105 110 115 118 119 116 104 94 92 88 81 81 87 87 93 101 95 96 90 80 81 85 84 96 97 89 84 83 79 82 97 91 90
48 56 63 68 76 82 89 90 91 94 100 107 111 112 108 103 93 84 79 78 77 77 79 81 83 85 85 81 75 65 65 73 82 87 81 81 77 80 85 79 85 93 104
52 57 62 72 81 85 87 85 86 89 97 101 105 101 91 83 83 81 78 78 80 80 85 87 90 93 99 90 74 67 58 59 71 61 61 72 75 82 83 79 78 99 100
54 59 66 75 80 82 82 81 80 83 88 93 91 87 89 89 87 83 86 74 73 75 78 83 88 98 102 95 89 85 88 77 60 59 58 69 77 84 90 87 87 98 97
Wind_Direction_850mb
41 28 29 28 19 8 359 343 301 261 251 246 239 239 236 239 241 239 239 240 243 241 235 235 235 234 234 232 230 227 224 219 220 219 221 229 237 241 247 248 241 240 238
39 31 28 29 27 21 17 14 14 338 284 233 239 236 240 244 246 251 244 242 240 243 238 236 236 237 235 233 231 229 225 223 225 218 223 221 235 235 239 236 234 229 226
39 29 31 34 36 35 31 27 28 30 41 280 269 254 228 245 247 246 247 247 244 243 243 238 238 240 237 236 236 233 231 228 225 218 216 199 220 225 234 229 225 220 223
48 44 38 35 37 39 41 39 37 35 44 51 14 315 294 293 281 268 256 259 259 252 253 248 241 241 240 238 239 237 236 233 233 223 221 227 204 189 201 225 225 223 228
47 42 42 44 40 39 37 39 40 40 42 35 42 28 340 311 290 278 285 272 271 268 252 253 245 241 242 240 240 238 236 236 237 235 232 227 225 218 200 206 222 227 231
56 51 41 38 33 34 35 36 37 37 37 31 26 18 1 335 308 294 300 289 284 277 272 260 256 246 245 243 243 243 239 237 237 240 238 238 230 227 221 217 222 228 230
63 59 48 40 31 27 27 25 24 25 26 27 28 24 15 3 345 325 310 292 287 284 282 276 271 259 249 248 245 245 244 240 238 238 240 241 240 240 240 232 221 208 223
59 49 41 33 27 21 17 15 14 13 13 13 16 19 19 19 9 350 331 312 294 284 286 284 279 271 262 253 249 247 247 245 242 240 240 242 242 240 242 239 233 213 219
42 34 26 20 15 17 15 13 10 8 7 8 9 9 9 11 10 11 5 347 326 306 296 288 285 279 271 262 255 250 250 248 246 243 242 243 244 241 240 240 242 240 228
32 22 19 13 6 4 6 6 8 11 11 10 6 6 5 3 1 1 2 3 354 340 324 314 298 287 278 272 264 256 253 252 250 247 245 244 243 242 238 237 241 241 241
21 9 11 11 6 4 8 10 7 6 8 9 6 2 2 1 356 353 350 350 350 350 349 334 314 301 289 279 269 267 264 258 253 250 248 247 246 244 239 237 238 237 237
10 14 13 12 11 14 5 1 356 350 353 356 355 354 352 350 349 350 347 341 337 340 342 339 336 327 310 294 279 276 269 263 260 255 252 249 246 245 243 239 238 238 236
321 356 345 351 357 3 356 348 349 345 343 345 344 343 342 342 341 339 336 335 334 332 331 332 333 327 324 312 295 284 275 273 265 261 259 255 250 250 246 242 239 237 237
239 279 291 308 325 339 338 336 337 335 333 335 334 333 331 332 332 331 329 325 325 327 326 323 324 325 318 311 309 297 286 277 270 266 262 259 256 252 249 246 242 239 237
260 297 301 310 311 309 316 322 324 322 322 321 320 319 318 318 317 318 320 321 321 318 316 316 315 315 316 315 299 300 298 286 277 270 265 262 260 256 253 250 246 242 237
276 303 315 320 318 311 300 305 311 305 315 318 314 309 304 301 303 306 309 309 310 312 311 309 310 310 309 309 312 306 293 289 281 276 269 263 262 259 257 255 251 248 242
269 295 311 319 321 315 305 297 301 305 313 315 313 311 307 303 301 299 298 300 303 304 305 305 305 304 303 304 303 304 301 289 281 277 271 267 262 259 257 255 254 251 248
268 276 291 301 310 313 316 307 305 312 315 315 313 312 311 308 306 303 300 297 294 293 294 296 297 297 296 297 298 299 297 294 285 279 271 266 264 259 257 254 251 249 247
283 279 283 292 305 314 315 306 309 312 312 311 311 311 308 305 304 301 300 297 295 291 288 286 286 289 290 291 292 293 292 288 287 282 277 268 264 260 254 252 248 250 248
292 284 274 293 304 310 308 306 310 311 312 311 307 305 304 302 299 296 294 294 292 292 291 287 282 280 281 283 283 285 285 283 281 282 281 276 266 258 247 246 246 242 245
280 277 284 293 304 304 305 308 310 311 313 310 308 305 302 297 295 295 292 289 287 288 289 288 285 282 277 275 278 277 273 277 277 277 278 276 275 262 245 239 242 245 240
275 283 290 297 301 305 307 308 310 311 309 307 305 304 304 303 301 299 298 294 289 287 286 286 286 284 279 276 275 272 267 271 271 269 272 273 273 260 250 234 239 234 228
284 289 294 297 302 306 312 311 311 311 309 307 306 307 308 308 308 303 299 294 291 285 283 281 281 281 281 278 274 268 262 261 259 264 267 268 266 255 243 239 234 226 217
292 295 300 304 308 312 312 312 313 313 311 311 311 312 311 310 308 302 296 292 289 287 285 283 281 282 282 278 276 272 267 259 260 264 259 252 250 249 246 238 231 224 218
295 301 304 307 309 313 313 315 318 316 315 315 314 312 309 306 302 298 294 292 288 286 285 283 281 280 279 278 274 271 267 266 272 267 260 254 241 236 227 226 232 220 219
300 303 306 309 314 314 316 320 320 320 317 314 316 315 314 312 308 303 301 298 292 291 287 284 280 279 276 277 274 272 271 270 267 266 257 251 234 229 228 224 222 220 219